�������r�C�����j�^�v���󋵏��
Date,Time,5�C6���@���p�r�C��,����,����(m/s)
2021/12/30,00:00,3.9,���k��,4.5
2021/12/30,00:10,4.2,���k��,3.7
2021/12/30,00:20,4.1,�k��,3.8
2021/12/30,00:30,4.0,���k��,3.7
2021/12/30,00:40,4.0,��,2.3
2021/12/30,00:50,4.1,��쓌,3.7
2021/12/30,01:00,4.2,��,3.3
2021/12/30,01:10,4.2,�쓌,2.8
2021/12/30,01:20,4.0,���쓌,1.2
2021/12/30,01:30,4.1,���쓌,2.0
2021/12/30,01:40,4.3,�k�k��,1.2
2021/12/30,01:50,4.2,���k��,0.9
2021/12/30,02:00,4.3,���쓌,2.3
2021/12/30,02:10,4.1,��,0.6
2021/12/30,02:20,4.1,-,CALM
2021/12/30,02:30,4.1,-,CALM
2021/12/30,02:40,4.2,-,CALM
2021/12/30,02:50,4.1,���k��,1.1
2021/12/30,03:00,4.2,���쐼,0.6
2021/12/30,03:10,4.1,-,CALM
2021/12/30,03:20,4.1,-,CALM
2021/12/30,03:30,4.1,��쐼,0.6
2021/12/30,03:40,4.0,��쓌,0.6
2021/12/30,03:50,4.1,�쓌,0.6
2021/12/30,04:00,4.1,���쓌,1.7
2021/12/30,04:10,4.1,���쓌,0.6
2021/12/30,04:20,4.1,���쓌,1.2
2021/12/30,04:30,4.0,��,0.6
2021/12/30,04:40,4.0,-,CALM
2021/12/30,04:50,4.3,��,0.6
2021/12/30,05:00,4.1,�쐼,0.9
2021/12/30,05:10,4.0,��쐼,1.5
2021/12/30,05:20,3.9,���쐼,1.5
2021/12/30,05:30,4.1,�쐼,1.7
2021/12/30,05:40,4.1,�쐼,1.2
2021/12/30,05:50,4.0,�쐼,1.2
2021/12/30,06:00,4.0,���쐼,1.5
2021/12/30,06:10,4.1,�쐼,1.2
2021/12/30,06:20,3.9,���쐼,1.7
2021/12/30,06:30,4.2,���쐼,2.0
2021/12/30,06:40,4.2,���쐼,2.6
2021/12/30,06:50,4.1,���쐼,2.6
2021/12/30,07:00,4.1,��,2.2
2021/12/30,07:10,4.1,���k��,4.2
2021/12/30,07:20,4.2,���k��,4.0
2021/12/30,07:30,4.1,���k��,5.4
2021/12/30,07:40,4.0,�k��,4.5
2021/12/30,07:50,4.0,���k��,4.3
2021/12/30,08:00,4.0,���k��,5.6
2021/12/30,08:10,4.1,���k��,5.3
2021/12/30,08:20,4.2,���k��,6.6
2021/12/30,08:30,4.0,��,8.8
2021/12/30,08:40,3.9,���k��,6.2
2021/12/30,08:50,4.2,���k��,5.6
2021/12/30,09:00,4.2,���k��,5.8
2021/12/30,09:10,4.1,�k��,6.0
2021/12/30,09:20,4.0,�k��,5.4
2021/12/30,09:30,4.2,�k��,4.6
2021/12/30,09:40,4.1,���k��,3.8
2021/12/30,09:50,4.1,���k��,9.1
2021/12/30,10:00,4.1,��,10.0
2021/12/30,10:10,4.1,���k��,6.2
2021/12/30,10:20,4.1,���k��,7.0
2021/12/30,10:30,3.9,���k��,4.2
2021/12/30,10:40,4.2,�k��,3.2
2021/12/30,10:50,4.3,�k�k��,7.1
2021/12/30,11:00,3.9,�k�k��,7.2
2021/12/30,11:10,4.0,�k��,7.2
2021/12/30,11:20,4.3,�k��,5.7
2021/12/30,11:30,4.2,�k��,5.1
2021/12/30,11:40,4.0,�k��,6.7
2021/12/30,11:50,4.1,�k��,7.6
2021/12/30,12:00,4.1,���k��,6.9
2021/12/30,12:10,4.0,�k��,6.2
2021/12/30,12:20,4.0,���k��,4.3
2021/12/30,12:30,4.1,��,4.6
2021/12/30,12:40,4.0,��,8.5
2021/12/30,12:50,4.0,��,5.4
2021/12/30,13:00,4.2,��,4.9
2021/12/30,13:10,4.1,��,9.3
2021/12/30,13:20,4.0,��,11.3
2021/12/30,13:30,4.2,���k��,9.7
2021/12/30,13:40,4.2,��,9.4
2021/12/30,13:50,4.3,��,7.9
2021/12/30,14:00,4.0,��,9.9
2021/12/30,14:10,4.2,��,9.7
2021/12/30,14:20,4.1,��,9.8
2021/12/30,14:30,4.1,��,6.6
2021/12/30,14:40,4.1,��,9.7
2021/12/30,14:50,4.2,��,8.4
2021/12/30,15:00,4.2,��,9.3
2021/12/30,15:10,4.3,��,6.0
2021/12/30,15:20,4.0,���k��,8.2
2021/12/30,15:30,4.1,���k��,8.4
2021/12/30,15:40,4.1,���k��,7.0
2021/12/30,15:50,3.9,���k��,7.2
2021/12/30,16:00,3.9,�k��,7.1
2021/12/30,16:10,4.1,�k��,7.2
2021/12/30,16:20,4.2,�k��,7.4
2021/12/30,16:30,4.2,�k��,8.7
2021/12/30,16:40,4.2,�k��,9.0
2021/12/30,16:50,4.1,���k��,10.7
2021/12/30,17:00,4.1,�k��,9.1
2021/12/30,17:10,4.0,�k��,9.3
2021/12/30,17:20,4.0,�k��,8.1
2021/12/30,17:30,4.2,�k��,8.7
2021/12/30,17:40,4.1,�k��,7.9
2021/12/30,17:50,3.9,�k��,7.0
2021/12/30,18:00,4.1,�k��,5.5
2021/12/30,18:10,4.1,�k��,4.3
2021/12/30,18:20,4.1,�k��,4.0
2021/12/30,18:30,4.1,�k��,4.3
2021/12/30,18:40,4.1,�k��,4.8
2021/12/30,18:50,4.2,�k��,5.4
2021/12/30,19:00,4.2,�k��,6.0
2021/12/30,19:10,4.1,�k��,6.7
2021/12/30,19:20,4.0,�k��,5.6
2021/12/30,19:30,4.0,�k�k��,5.6
2021/12/30,19:40,4.2,�k��,6.4
2021/12/30,19:50,4.1,�k�k��,5.0
2021/12/30,20:00,4.1,�k��,4.9
2021/12/30,20:10,4.0,�k��,4.9
2021/12/30,20:20,4.0,�k��,5.6
2021/12/30,20:30,4.0,�k�k��,4.2
2021/12/30,20:40,4.1,�k�k��,3.9
2021/12/30,20:50,4.2,�k�k��,4.9
2021/12/30,21:00,4.1,�k�k��,3.7
2021/12/30,21:10,4.1,�k�k��,4.1
2021/12/30,21:20,4.0,�k�k��,4.6
2021/12/30,21:30,4.3,�k�k��,3.8
2021/12/30,21:40,4.0,�k,4.9
2021/12/30,21:50,4.2,�k,7.1
2021/12/30,22:00,4.0,�k,6.5
2021/12/30,22:10,4.1,�k�k��,6.7
2021/12/30,22:20,4.1,�k�k��,7.1
2021/12/30,22:30,4.1,�k�k��,6.0
2021/12/30,22:40,3.9,�k�k��,5.8
2021/12/30,22:50,4.0,�k�k��,5.1
2021/12/30,23:00,4.3,�k,5.5
2021/12/30,23:10,4.1,�k�k��,7.2
2021/12/30,23:20,4.0,�k,6.9
2021/12/30,23:30,4.2,�k�k��,6.8
2021/12/30,23:40,4.1,�k,6.4
2021/12/30,23:50,4.1,�k�k��,6.6
